Location: Buchberg
(46.9333°N, 15.8500°E)
Time: 09:47:40
(UTC+00:00)

Abrixas rocket - Pass Details

Date: 14 July 2020
Orbit: 339 x 347 km, 48.4° (Epoch: 07 August)

Event Time Altitude Azimuth Distance (km) Brightness Sun altitude
Exits shadow 00:03:04 46° 54° (NE) 466 2.7 -20.1°
Drops below altitude 10° 00:05:19 10° 82° (E) 1,284 5.0 -20.0°
Sets 00:07:20 0° 86° (E) 2,122 6.1 -19.9°
